User: anonymous   Login
Location: Rochester
(43.1610°N, 77.6109°W)
Time: 01:02:10
(UTC-04:00)
Language:

HuskySat-1 - Orbit

View from above orbital plane
View from above orbital plane
View from above satellite
View from above satellite

Ground track
Ground track

The orbit data is extracted from the following two-line orbital elements,

1 45117U 19071G   21298.23229329  .00006207  00000-0  17359-3 0  9993
2 45117  51.6394 125.3986 0009478  47.2052 312.9727 15.37992675 97146
Epoch (UTC): 25 October 2021 05:34:30
Eccentricity: 0.0009478
inclination: 51.6394°
perigee height: 445 km
apogee height: 458 km
right ascension of ascending node: 125.3986°
argument of perigee: 47.2052°
revolutions per day: 15.37992675
mean anomaly at epoch: 312.9727°
orbit number at epoch: 9714

The dashed part of the orbit path shows where the satellite is in the earth's shadow,  

DLR